Wind_Speed
31 29 27 26 24 23 23 22 22 22 22 23 22 22 22 22 22 22 23 22 21 20 20 21 22 24 25 25 25 26 26 26 26 25 24 24 22 20 17 15 15 15 13 9 5 6 6 6 6 7 9 14 19 22 23 23 24 25 26 28 29 30 30 30 30 31 31 32 32
31 30 29 27 25 25 25 24 24 23 24 24 24 23 23 23 23 23 24 24 23 22 22 23 24 25 26 27 26 27 28 28 28 28 28 28 26 24 22 20 19 19 18 14 9 5 4 5 5 6 7 7 6 6 8 11 13 16 19 23 27 29 30 30 30 30 30 30 30
31 31 30 29 28 27 27 26 26 26 25 25 25 24 24 24 24 24 24 24 25 25 25 24 25 25 26 27 27 27 28 29 29 30 31 30 30 29 27 26 24 23 22 20 17 13 11 11 11 12 12 12 12 11 10 9 9 9 10 12 14 18 22 26 28 29 30 30 30
31 30 30 30 29 28 27 26 26 26 25 25 25 25 25 24 24 24 24 25 25 26 26 25 25 25 26 27 27 28 28 29 30 31 32 33 33 32 31 30 29 28 27 25 23 21 18 17 16 17 18 18 18 17 15 13 11 10 11 11 11 11 11 14 18 22 25 28 30
30 30 29 29 28 27 26 26 25 25 25 26 26 25 25 25 24 24 24 25 25 25 25 25 25 26 26 27 27 28 29 30 30 31 33 34 35 35 33 33 32 31 30 29 29 28 26 24 23 23 24 24 24 23 21 18 17 16 15 14 13 13 14 14 14 13 14 16 19
29 29 29 28 28 27 26 26 25 25 25 26 26 26 25 24 24 24 24 24 24 24 24 24 25 25 26 27 27 28 29 30 31 32 33 35 36 37 36 35 33 32 32 32 32 32 31 30 28 27 27 27 27 26 25 23 22 21 21 20 20 18 17 16 16 16 16 16 14
28 28 28 28 28 28 27 26 26 25 26 26 26 26 25 24 24 24 23 24 24 24 24 24 24 25 25 26 27 28 29 29 31 32 33 34 35 36 36 35 34 33 33 33 34 34 34 33 31 30 29 29 29 29 28 27 25 24 24 26 26 25 24 24 22 21 20 20 19
28 28 28 28 28 28 27 27 26 26 25 26 25 25 24 23 23 23 23 24 24 24 23 24 24 24 25 25 26 27 27 28 30 31 32 33 33 34 34 34 34 33 33 33 34 34 35 34 33 31 31 30 30 30 30 29 28 26 25 26 27 27 27 27 27 27 27 26 25
28 28 28 28 28 28 27 27 27 26 25 25 24 24 23 23 23 23 24 24 23 23 23 23 23 24 24 25 25 26 27 28 29 29 30 31 32 33 33 33 33 32 32 32 33 34 34 34 33 32 31 30 30 30 31 30 31 30 28 26 26 26 27 27 28 28 29 30 29
28 28 28 28 28 28 28 27 27 27 26 25 24 24 24 23 24 24 23 23 23 23 23 23 24 24 24 25 25 25 26 27 28 28 29 30 31 32 32 32 31 30 30 31 33 34 34 33 32 31 30 30 30 30 31 32 33 32 29 27 25 25 26 27 28 29 29 30 30
27 27 27 27 27 28 28 28 27 27 26 25 25 25 24 24 24 23 22 22 22 23 23 23 24 24 24 24 25 25 26 26 27 28 28 30 30 31 31 30 29 29 29 30 31 32 32 31 31 30 30 30 30 30 31 31 31 30 28 27 26 25 26 27 28 29 29 29 30
27 27 27 27 27 27 27 27 27 27 26 25 25 25 24 24 24 23 22 23 22 22 22 23 23 23 24 24 24 25 25 26 26 27 28 29 29 29 29 28 27 27 27 28 29 30 30 30 30 30 30 30 29 29 29 30 29 28 27 26 26 26 26 27 28 28 28 28 29
27 27 27 27 27 27 26 26 26 26 26 25 25 24 24 24 23 23 23 23 22 22 21 22 22 23 23 23 24 24 24 25 25 26 28 29 29 28 27 26 25 25 26 27 27 28 28 29 29 30 30 29 28 28 28 28 28 27 26 26 26 26 26 27 27 27 27 28 29
28 27 27 27 26 26 25 25 25 25 25 24 24 24 23 23 23 23 23 23 22 22 21 21 21 22 22 22 23 23 23 24 25 27 28 29 29 28 26 25 24 25 25 26 26 27 28 28 29 29 28 28 27 27 27 27 26 26 25 25 26 26 26 26 25 26 26 27 28
27 27 26 26 26 25 25 24 24 24 23 23 22 22 22 22 22 22 23 22 22 21 21 20 20 21 21 21 22 23 24 25 26 28 28 28 28 27 26 25 24 25 25 26 26 27 27 27 27 27 27 26 26 26 26 25 25 25 25 25 25 25 25 25 24 25 25 26 27
25 25 25 25 25 25 24 23 23 23 23 22 22 21 21 21 21 21 21 21 21 21 20 20 20 20 21 21 22 24 25 26 27 28 27 27 26 26 25 25 25 25 26 26 26 26 26 25 25 25 25 25 25 24 24 24 24 24 24 24 24 24 24 24 24 24 23 24 26
24 24 24 24 24 24 24 23 23 23 23 22 22 21 21 20 20 20 20 20 20 20 21 21 21 21 22 22 23 24 26 26 26 26 26 25 25 25 25 25 25 25 26 26 26 25 25 24 24 23 23 23 23 23 23 23 23 23 23 23 23 23 23 23 23 23 22 22 24
24 23 23 23 23 23 23 23 23 22 22 22 22 22 22 21 21 20 20 20 20 21 21 21 21 22 23 24 24 24 25 25 25 25 25 24 24 25 25 25 25 26 26 26 26 25 24 23 23 22 22 22 22 23 23 22 22 22 22 22 23 23 23 23 23 23 22 21 22
24 24 23 22 22 22 22 22 22 22 22 22 22 22 22 22 22 22 21 21 21 21 21 21 21 22 23 23 24 24 24 24 24 23 23 23 24 24 25 25 26 26 26 26 25 25 24 23 22 22 21 21 21 22 22 21 21 21 21 22 22 22 23 23 23 23 23 22 21
24 24 23 22 22 21 21 21 20 20 20 21 21 22 22 22 23 22 22 22 21 21 22 22 22 22 22 23 23 23 23 23 23 23 23 23 23 23 24 25 25 26 26 25 25 24 24 23 22 21 21 20 20 20 20 20 21 21 21 21 21 22 22 23 23 23 23 22 22
23 23 23 22 21 20 20 20 19 19 20 20 21 21 22 22 23 23 23 22 22 22 22 22 23 22 22 22 22 22 22 22 23 23 22 22 22 22 23 24 25 25 26 26 25 24 23 23 22 21 20 19 19 19 19 19 20 20 20 20 20 21 22 22 22 22 22 22 22
23 22 22 22 21 21 20 19 19 19 19 20 20 20 21 21 22 22 23 23 23 23 23 23 23 23 22 21 21 21 21 22 23 23 23 23 22 22 22 23 24 25 26 27 26 25 23 23 22 21 20 19 19 18 18 18 19 19 19 19 20 20 21 22 22 22 21 21 20
22 22 22 22 22 21 20 20 20 20 20 20 20 20 21 21 21 22 22 23 24 24 24 24 23 23 22 21 21 21 21 22 24 24 24 24 23 22 22 22 23 24 26 26 26 25 23 22 21 21 20 19 19 18 18 18 19 19 19 19 19 20 20 21 21 21 21 20 19
22 22 22 22 22 22 22 21 21 21 21 21 21 21 21 21 21 22 22 23 23 23 23 23 23 23 22 22 21 21 21 23 24 25 26 25 25 23 22 21 21 22 23 24 25 24 23 21 20 20 20 19 18 18 17 18 19 19 19 19 19 19 20 20 21 21 21 21 20
22 22 23 23 23 23 23 23 23 22 22 22 22 22 22 21 21 21 21 21 21 21 21 21 22 22 23 22 21 21 21 22 23 24 25 26 25 24 23 22 21 21 22 22 23 23 22 21 20 19 19 19 18 18 17 18 19 19 19 20 20 20 20 20 21 21 21 21 20
22 22 23 23 23 23 23 23 23 22 22 22 22 22 21 21 20 20 20 20 20 20 20 20 20 21 22 22 21 21 20 21 22 23 23 24 24 24 24 23 21 21 21 22 22 23 22 21 20 19 18 18 19 18 18 18 19 20 21 21 22 22 21 21 21 21 21 22 21
22 22 23 23 23 23 23 22 22 21 21 21 21 21 20 20 20 19 19 20 19 19 19 18 18 18 19 21 21 21 20 19 20 20 21 22 23 23 23 23 22 22 21 22 21 21 21 21 20 18 18 18 18 18 18 17 19 20 21 21 22 22 22 22 22 22 22 23 22
22 22 22 22 23 23 22 21 21 21 20 20 20 20 19 19 19 19 20 19 19 19 19 18 17 17 18 19 20 20 19 19 18 18 19 20 21 21 21 21 21 21 21 21 21 21 20 20 19 18 17 17 17 17 17 17 18 19 19 20 21 21 22 22 22 22 22 23 22
21 21 21 22 22 22 22 21 21 20 20 19 19 19 19 19 20 20 20 20 20 20 19 18 17 16 17 18 19 19 19 18 18 17 18 19 19 20 20 20 20 20 21 21 20 20 19 19 18 17 16 16 16 16 17 17 17 18 18 18 19 20 20 21 21 22 22 22 22
20 20 21 21 21 21 21 20 20 19 18 18 19 19 19 20 20 20 20 20 20 20 19 18 17 17 17 17 17 18 18 17 17 17 17 18 18 18 18 19 19 20 20 21 20 19 19 18 18 17 16 15 15 15 16 16 16 17 17 18 18 18 19 20 21 21 21 21 22
20 20 20 20 20 20 20 19 18 18 18 18 18 19 20 20 20 20 20 20 19 19 18 17 17 17 17 17 17 17 17 17 17 17 17 17 17 17 17 18 19 19 20 20 20 19 19 18 18 17 16 15 15 15 15 15 16 16 17 17 17 18 18 19 20 20 21 21 21
19 19 19 19 20 20 19 18 17 17 17 18 18 19 19 20 19 19 19 18 18 18 18 18 18 18 17 17 16 16 16 16 17 17 17 17 16 16 16 17 18 19 20 20 20 19 19 18 17 17 16 16 15 15 15 15 15 15 16 16 17 17 18 18 19 19 20 20 20
19 18 18 19 19 19 18 18 17 17 17 18 18 19 19 19 18 18 18 18 18 18 18 18 18 18 18 17 17 17 17 17 17 17 16 16 16 15 16 17 18 19 19 20 20 20 19 18 17 17 17 16 15 15 15 15 15 15 15 16 16 17 17 18 18 19 19 20 20
18 18 18 18 18 18 18 17 17 17 17 18 18 18 18 18 18 18 18 17 17 17 17 17 17 17 17 16 17 17 17 17 17 16 16 16 16 16 16 17 18 18 19 20 20 20 19 18 17 16 16 16 16 15 15 15 16 16 16 16 16 17 17 17 17 18 18 19 19
18 17 17 17 17 18 18 17 17 17 18 18 18 18 18 18 18 18 17 17 16 16 16 15 15 16 16 16 16 17 17 17 17 16 16 16 16 17 17 17 17 18 18 19 20 20 20 18 17 16 16 16 16 16 15 15 16 15 15 16 16 17 17 17 17 17 17 18 18
17 16 16 16 17 17 18 18 17 18 18 18 18 18 18 18 18 17 16 16 16 16 16 15 15 15 16 17 17 17 18 17 17 16 15 16 17 18 18 18 18 18 18 19 19 20 20 20 18 17 16 17 17 16 15 15 15 15 15 15 16 17 17 17 16 16 16 17 17
16 15 15 15 16 17 18 18 18 18 18 18 18 18 17 17 17 17 16 16 16 16 16 15 16 16 17 17 17 17 17 17 17 16 16 16 17 18 19 19 19 19 19 19 20 20 21 21 21 19 18 18 18 17 16 15 15 15 15 15 16 16 17 16 16 15 16 16 17
15 14 14 14 15 17 18 18 18 18 18 18 17 17 17 16 16 16 16 15 15 15 16 15 15 16 16 16 16 16 17 17 17 17 17 17 17 18 19 21 21 20 20 20 20 21 22 23 23 22 21 20 20 18 17 16 16 16 16 16 16 17 17 17 16 16 16 16 16
14 13 13 13 15 16 17 18 18 17 17 16 16 16 16 15 15 15 14 14 14 14 15 15 15 15 15 16 16 17 17 17 17 18 18 18 18 18 20 22 22 22 21 21 21 22 23 24 25 24 23 22 22 20 19 19 19 19 19 19 19 19 19 19 18 17 17 18 17
13 12 12 12 13 15 16 17 16 16 15 15 15 15 14 14 13 13 13 13 13 14 14 15 15 15 15 16 16 17 17 17 18 18 19 20 20 20 21 22 23 23 22 21 22 22 24 24 25 26 25 23 23 22 21 21 21 21 21 22 22 22 22 21 20 20 19 19 19
13 12 11 11 12 13 14 15 15 15 14 14 13 13 13 13 13 13 13 13 14 14 15 15 16 16 16 17 17 18 18 18 18 18 19 20 21 22 22 23 23 23 23 22 22 22 23 24 25 25 25 24 23 22 22 22 22 23 23 23 23 23 23 24 23 22 22 21 21
Wind_Direction
56 56 56 55 55 55 55 53 52 52 52 52 50 50 50 50 48 47 47 45 42 39 37 36 35 35 36 38 38 38 38 38 38 38 39 40 40 38 35 31 26 23 19 8 331 296 289 292 292 290 280 267 260 258 258 259 259 258 256 255 254 254 254 253 253 253 253 252 252
55 56 56 56 56 57 56 54 53 52 52 53 52 51 51 51 49 48 47 46 45 43 42 41 40 39 39 40 41 40 39 38 39 40 41 42 43 44 44 42 38 34 32 34 36 33 30 36 45 42 31 13 345 311 293 287 284 280 273 266 259 255 252 252 252 253 253 254 253
54 55 55 55 55 55 54 52 51 51 52 52 52 52 51 51 50 49 48 47 47 46 44 42 42 41 41 41 42 42 41 40 40 40 41 42 44 46 47 46 44 41 40 42 49 57 62 63 61 54 46 37 30 20 9 354 343 337 327 310 290 274 263 255 252 251 252 253 253
52 53 52 52 52 52 52 51 50 50 51 51 51 51 51 50 49 48 48 47 47 46 45 43 43 42 42 42 42 42 42 42 41 40 40 42 44 46 47 46 44 43 43 45 51 57 61 61 57 51 45 40 35 30 24 18 16 20 22 18 7 351 328 300 279 266 258 256 254
51 51 51 51 51 52 52 51 50 50 50 51 51 50 49 48 47 47 46 46 45 44 44 44 44 44 44 43 42 42 42 42 41 40 40 41 43 46 47 45 43 42 43 45 49 54 57 58 55 50 45 43 40 38 37 38 42 42 38 32 26 19 13 7 356 336 310 291 276
49 50 51 52 52 52 51 51 50 50 50 50 50 48 47 46 46 45 44 44 44 44 44 44 45 45 45 44 44 43 42 42 41 41 41 41 43 44 44 43 41 40 41 44 48 51 54 54 52 48 45 43 42 41 42 44 45 44 42 39 35 31 27 25 22 20 16 8 353
50 50 51 51 52 52 51 51 51 50 50 50 48 47 45 45 45 45 45 45 44 44 43 43 44 44 44 44 44 43 43 42 41 41 41 41 42 42 42 41 39 39 39 42 46 48 50 51 49 46 44 42 40 40 40 42 44 45 44 41 39 38 36 36 34 31 28 24 21
50 51 51 51 52 52 52 51 51 50 49 49 47 46 44 44 44 44 44 44 43 42 43 43 44 44 45 45 45 44 43 42 42 42 42 42 41 41 41 40 39 38 39 41 44 46 48 49 48 45 43 41 39 38 39 41 44 46 46 40 37 37 37 38 37 36 34 32 30
48 49 50 51 51 52 52 52 51 51 50 48 47 46 45 44 44 44 44 43 42 43 44 44 44 45 46 46 46 45 45 44 43 43 43 42 42 41 41 40 39 38 39 40 43 46 48 48 47 45 44 42 40 39 39 41 44 46 44 39 35 34 36 37 37 37 35 34 31
46 46 47 47 48 50 51 52 52 51 50 49 48 47 45 44 44 44 44 43 43 43 43 44 45 45 46 47 47 46 46 45 45 45 44 44 43 42 41 39 39 38 38 40 43 46 47 47 47 45 44 43 41 40 40 41 43 43 41 36 34 33 34 36 37 36 35 32 30
45 45 45 44 44 46 48 49 49 49 48 48 47 47 46 45 44 44 45 45 44 42 42 43 44 45 45 46 47 47 47 46 46 46 45 45 44 43 41 40 39 39 39 40 43 45 46 47 47 46 44 43 42 41 41 41 42 41 39 36 35 34 35 36 37 36 35 32 30
45 45 45 44 43 42 43 44 44 45 45 45 45 45 45 44 44 45 45 45 43 42 42 43 44 44 45 46 47 48 48 48 47 46 46 46 46 44 42 40 39 39 40 41 43 45 46 46 46 46 45 43 42 41 41 41 41 40 38 36 35 35 35 36 37 37 36 33 31
44 45 45 44 43 41 40 39 40 40 41 41 42 42 42 43 43 44 44 43 42 41 41 42 43 44 45 46 48 49 49 49 48 47 47 47 46 44 42 40 39 39 40 42 44 45 45 45 46 46 45 44 43 42 41 41 41 39 37 35 35 35 35 35 36 37 36 35 33
44 44 44 44 43 41 39 37 36 37 37 37 38 39 40 40 41 41 42 42 41 40 39 40 42 44 45 46 48 49 50 50 49 49 48 47 46 44 41 39 38 39 41 42 44 45 45 45 45 45 45 44 43 43 42 42 40 39 37 35 34 34 34 35 36 37 37 36 35
42 42 42 42 42 41 39 36 35 34 35 35 35 36 36 37 37 38 39 39 39 39 39 39 40 42 44 46 48 49 50 51 51 50 49 47 45 43 41 39 38 39 40 43 45 46 46 45 44 44 44 43 43 42 42 42 40 39 36 35 34 33 34 33 34 36 37 37 36
40 40 40 40 40 39 38 36 35 34 34 34 35 35 35 35 35 36 36 36 37 37 37 38 38 40 42 44 47 49 51 51 51 50 48 46 44 42 40 39 38 39 40 42 44 46 47 46 45 44 43 43 42 41 41 40 40 38 36 35 33 33 32 32 32 34 36 38 38
38 38 38 38 38 38 37 36 35 35 35 36 36 36 36 35 35 35 34 34 35 36 37 38 39 40 41 42 45 47 48 49 50 49 47 45 43 41 40 39 39 39 40 41 43 45 46 46 45 44 43 42 41 40 40 39 39 37 36 34 33 32 31 31 31 31 33 37 39
37 37 37 36 36 36 36 36 36 35 36 37 38 38 38 38 37 37 36 36 36 36 37 38 39 40 41 42 43 44 45 46 47 47 47 46 44 42 40 39 39 39 40 40 41 43 45 46 45 44 42 41 40 39 39 38 38 37 36 35 33 32 31 31 31 31 31 34 38
35 35 35 34 34 34 34 35 35 35 35 36 38 40 40 40 40 39 38 38 37 37 37 38 39 41 42 42 43 43 44 44 45 46 47 47 45 43 41 40 39 39 39 39 40 41 43 44 44 43 42 40 39 38 38 37 37 37 36 35 34 33 32 32 32 33 33 33 35
34 34 33 33 33 33 33 33 33 33 34 35 37 38 40 40 41 40 39 38 38 38 38 38 39 40 42 42 43 42 42 43 44 45 45 46 45 44 42 40 39 39 39 38 38 38 39 41 42 42 41 39 37 36 35 35 35 35 35 35 35 34 33 33 33 34 35 34 34
33 33 33 33 33 33 32 32 32 32 32 33 34 36 37 39 39 39 38 38 39 39 39 39 39 40 41 42 42 42 41 43 43 44 44 44 44 44 43 41 39 38 37 37 36 35 35 36 39 40 39 37 35 34 33 32 32 33 33 34 34 34 34 34 34 34 34 34 33
33 33 33 33 33 33 33 32 32 32 32 32 33 34 35 36 37 37 38 38 39 39 38 38 39 40 41 41 41 41 41 42 43 44 43 42 42 43 43 41 39 38 36 35 33 32 31 32 35 37 38 36 33 31 29 28 28 29 29 30 30 31 31 32 32 32 32 33 32
33 34 34 33 33 33 33 33 33 32 32 32 32 33 34 35 36 37 37 37 37 37 38 38 38 39 40 41 42 41 41 42 43 44 43 42 41 41 41 40 38 37 35 33 31 30 29 29 30 34 36 35 32 29 27 26 25 25 25 25 25 25 26 26 27 27 28 29 29
34 34 34 34 33 33 33 33 33 32 32 31 32 32 33 34 35 36 36 35 35 35 35 36 37 38 40 41 42 42 42 42 42 42 42 41 40 39 38 38 37 36 35 33 31 30 29 28 28 30 33 34 31 28 26 25 25 24 23 22 21 21 21 21 21 21 21 22 24
35 35 35 34 33 32 32 32 32 31 31 31 32 33 34 34 34 35 35 34 33 33 33 33 35 37 38 40 41 42 42 42 42 41 40 39 38 37 37 36 35 35 34 32 30 29 30 30 29 29 30 32 31 29 27 25 25 24 24 22 21 19 18 17 17 17 17 17 18
34 34 34 33 32 31 31 30 30 31 31 32 33 33 33 33 34 34 35 34 33 32 31 31 32 34 35 37 39 40 41 42 42 41 40 38 37 36 36 35 34 33 32 31 30 29 29 30 30 30 30 32 32 30 27 24 24 25 25 23 22 20 17 15 13 13 14 14 15
32 32 31 31 31 30 29 28 29 30 31 31 31 32 32 33 33 34 34 34 34 33 32 31 31 31 33 34 36 37 38 40 41 41 40 38 37 36 36 35 35 33 31 30 30 29 28 28 29 30 31 33 34 32 28 24 24 24 24 23 21 20 18 15 13 11 11 11 12
28 28 29 29 28 27 26 26 27 28 29 29 29 30 31 32 32 33 33 33 33 33 32 32 32 32 33 33 33 34 35 37 38 38 39 39 38 37 36 35 35 33 31 29 29 29 28 28 28 29 30 32 33 33 30 26 24 23 22 21 19 18 17 15 13 11 9 8 9
24 25 26 26 25 23 23 23 24 25 27 28 28 29 30 31 32 32 32 32 32 32 31 32 34 36 36 34 33 32 33 34 36 37 37 37 37 36 36 34 33 32 30 28 29 29 29 28 28 28 29 29 30 30 28 26 24 22 20 19 18 16 14 13 12 10 9 7 6
22 24 25 25 23 21 20 21 23 25 26 27 28 28 29 30 30 31 31 31 31 31 32 34 37 40 40 37 34 32 32 33 35 36 37 37 35 34 34 33 32 30 28 27 29 31 31 29 28 28 27 25 26 26 25 23 21 20 18 17 16 15 13 11 10 8 7 5 4
21 23 24 24 23 20 19 20 23 25 27 28 28 28 29 29 29 30 30 30 30 31 34 37 40 42 42 39 36 34 33 34 37 39 40 38 34 32 31 32 31 29 27 26 29 30 31 30 29 27 25 22 22 22 21 20 19 18 17 17 16 14 12 10 9 7 5 4 2
21 23 24 24 22 20 18 20 24 27 28 29 29 29 29 29 30 31 31 31 31 32 34 38 40 41 40 38 37 36 36 38 41 43 42 38 33 30 29 31 30 28 26 25 27 29 30 30 29 27 24 21 21 21 21 20 19 18 18 18 17 15 13 10 8 6 5 3 1
21 23 24 24 21 19 19 21 25 28 30 31 31 30 30 30 31 32 33 32 32 33 35 37 39 39 38 37 36 37 39 42 45 45 43 38 33 30 29 29 29 25 23 25 26 27 27 29 29 28 25 21 21 21 22 22 21 20 19 18 17 15 13 11 8 6 5 3 1
20 22 24 23 21 19 20 23 27 30 31 31 32 32 32 31 31 32 32 33 33 34 36 38 40 40 39 39 38 39 41 45 47 46 42 36 33 31 30 29 28 24 21 23 25 25 26 27 28 28 26 22 21 21 21 21 21 20 18 17 15 13 11 10 8 7 5 3 1
19 21 23 23 20 20 21 25 28 31 31 32 32 33 34 33 33 32 33 34 35 37 38 40 42 42 42 42 42 42 43 45 47 46 42 37 34 32 31 30 28 24 21 21 24 25 24 24 25 27 25 22 21 20 19 19 19 18 17 15 12 10 8 7 7 6 5 3 1
19 21 22 22 20 20 23 26 29 31 32 32 32 33 34 34 34 35 35 37 38 39 40 41 43 43 43 42 43 43 44 45 46 46 43 39 35 33 31 29 29 26 22 20 22 23 23 22 23 23 22 21 19 18 17 16 15 15 14 12 10 8 6 5 4 4 3 2 0
20 21 22 21 21 21 24 27 30 31 31 32 32 32 33 34 35 36 37 39 40 40 41 42 42 42 41 41 42 43 45 46 46 45 43 39 36 32 30 29 27 25 22 19 20 21 21 20 21 21 20 20 18 16 15 13 12 11 10 9 7 5 3 2 1 1 1 0 358
21 23 23 22 21 23 25 28 30 31 31 31 32 34 35 35 35 36 38 40 40 41 42 43 43 42 41 41 42 44 46 46 45 44 41 38 34 31 28 27 26 24 22 19 19 19 19 18 18 19 19 18 16 14 12 10 9 8 6 4 2 1 360 359 358 357 357 357 355
24 25 25 24 23 24 26 29 30 31 31 31 32 34 36 36 37 38 40 42 44 44 44 44 43 43 42 41 42 44 45 45 44 41 39 36 33 29 27 26 25 24 22 19 18 18 18 17 17 16 17 16 15 13 10 8 6 4 3 1 359 357 357 356 355 354 354 353 352
27 29 29 27 26 26 27 29 31 32 32 32 32 34 36 37 38 40 43 46 47 47 46 45 45 44 43 42 42 42 43 43 41 39 37 34 32 29 27 25 24 22 21 19 17 17 17 16 15 15 15 15 13 11 8 5 3 2 1 359 357 355 353 353 352 352 351 350 350
30 33 33 31 29 28 28 28 30 32 34 34 34 35 37 39 41 42 45 46 47 47 46 45 45 44 44 43 42 42 41 40 39 37 35 33 31 29 27 25 23 21 19 18 16 16 16 15 14 14 14 14 12 10 7 4 2 360 358 357 355 353 351 349 349 349 348 348 348
Height
759 759 760 761 761 762 762 763 763 763 763 762 762 762 762 762 762 762 762 762 762 762 762 761 761 760 758 757 756 755 754 753 751 750 748 747 745 743 742 741 741 741 740 739 738 737 737 737 736 737 737 737 738 739 739 739 739 738 737 737 737 738 738 739 739 739 739 739 740
762 762 762 763 763 764 764 764 764 764 764 764 764 764 763 763 763 763 763 763 763 763 762 762 761 760 759 758 757 756 755 753 752 751 749 747 745 744 742 742 743 742 741 739 737 737 736 736 736 736 736 737 737 738 738 738 738 737 737 736 737 737 737 737 737 737 737 738 738
765 765 765 765 765 765 765 766 766 766 765 765 765 765 765 765 765 765 764 764 764 763 763 762 762 761 760 759 758 757 756 755 753 752 750 748 746 744 743 743 743 743 742 740 737 736 736 736 735 735 736 735 735 735 735 734 734 735 736 736 736 736 736 735 735 735 736 736 736
767 767 767 767 767 767 767 767 767 767 767 767 767 766 766 766 766 766 766 765 765 764 764 763 763 762 761 760 759 758 757 756 754 752 751 749 747 745 744 744 744 744 743 741 738 737 735 735 735 735 736 736 735 735 735 735 735 735 735 735 734 734 735 735 734 734 734 734 734
769 769 769 769 769 769 769 769 769 769 769 768 768 768 768 768 767 767 767 766 766 766 765 765 764 763 762 761 760 759 757 757 755 754 752 750 747 746 745 746 747 746 745 742 739 737 736 735 736 736 736 736 736 736 736 736 735 734 734 733 733 733 733 733 734 734 734 734 733
772 772 772 772 771 771 771 771 771 771 771 770 770 770 770 770 769 769 768 768 767 767 767 766 765 764 763 762 761 760 758 757 756 754 752 750 748 747 747 748 749 748 746 744 741 739 737 736 737 737 737 737 737 737 737 736 735 734 734 733 734 734 734 733 733 733 733 732 732
774 774 774 773 773 773 773 772 772 772 772 771 771 771 772 772 771 771 770 769 769 768 767 767 766 765 764 763 762 761 759 758 757 755 753 752 751 751 751 751 751 749 747 745 743 741 739 738 738 739 739 739 738 738 737 737 736 736 735 736 736 736 736 735 734 734 733 732 731
776 776 776 775 775 775 774 774 774 773 773 773 773 773 773 773 773 772 771 770 770 769 769 768 767 766 765 764 763 762 761 759 758 756 755 754 753 753 753 752 752 751 749 747 745 742 741 740 740 741 741 741 740 740 740 739 738 737 737 739 739 738 737 736 736 735 734 733 732
778 778 777 777 777 777 776 776 775 775 775 775 775 775 775 774 774 773 772 772 772 771 770 769 769 767 766 765 764 762 762 760 759 758 757 756 755 754 754 754 753 753 752 750 747 744 743 742 742 743 743 743 743 742 742 741 739 739 740 741 741 740 739 738 737 736 735 735 734
780 780 779 779 779 778 778 777 777 777 777 777 777 777 776 776 775 774 774 774 773 772 772 771 770 768 767 766 765 764 762 761 760 759 758 757 756 756 755 755 755 755 754 752 749 747 746 745 745 745 745 745 745 744 744 742 741 742 743 743 743 742 741 739 738 737 736 736 735
782 781 781 781 781 780 780 779 779 778 778 778 778 777 777 777 776 776 776 775 774 773 773 772 771 770 768 767 766 765 763 762 762 761 760 758 757 757 757 757 757 757 756 753 751 749 748 748 747 747 747 747 746 746 745 744 744 744 745 746 745 743 742 740 739 737 737 737 736
783 782 782 782 782 782 781 781 780 780 780 780 779 779 778 778 778 777 777 776 775 775 774 773 772 771 770 768 767 766 765 764 763 762 761 760 759 759 759 760 760 759 757 755 753 752 751 750 749 748 748 748 748 747 747 747 746 747 747 747 746 745 743 741 740 739 739 738 737
784 783 783 783 783 783 783 782 782 782 782 782 781 781 780 780 780 779 778 777 777 776 775 774 773 772 771 770 768 767 766 766 765 763 762 761 760 761 762 762 762 760 759 757 755 754 752 752 750 750 749 750 750 750 749 749 749 749 749 748 747 746 744 743 742 741 740 739 738
785 785 784 784 784 784 784 784 784 784 784 783 783 782 782 782 781 780 779 778 778 777 777 776 775 773 772 772 770 769 768 767 765 763 762 761 762 762 763 764 763 762 760 758 756 755 753 752 752 752 752 752 752 752 752 751 751 751 751 750 749 747 745 744 743 742 741 740 739
787 787 786 786 786 786 786 786 786 786 785 785 785 784 783 783 782 782 781 780 779 779 778 777 776 775 774 773 772 770 768 767 765 763 763 763 764 765 765 765 764 762 761 758 757 755 754 754 754 754 754 754 754 754 754 753 753 753 752 752 750 749 747 746 745 744 743 742 741
789 788 788 788 787 787 787 787 787 787 787 787 786 786 785 784 784 783 782 782 781 780 779 778 777 776 775 773 772 770 768 766 765 764 764 765 766 766 766 766 765 763 761 759 757 757 756 756 756 756 756 756 756 756 755 755 754 754 754 753 752 750 749 747 746 746 745 743 742
791 791 790 790 789 789 789 789 789 788 788 788 787 787 786 786 785 785 784 783 782 782 780 779 778 777 775 773 772 770 768 767 767 767 767 767 767 767 767 767 766 764 762 761 759 758 757 757 757 758 758 758 757 757 757 756 756 756 755 754 753 752 750 749 748 747 746 745 744
792 792 792 791 791 791 791 791 790 790 790 789 788 788 787 787 786 786 785 784 783 782 781 780 779 777 776 774 772 771 770 769 769 769 768 768 768 768 768 767 766 765 763 762 761 760 759 759 759 759 759 759 759 758 758 758 757 757 756 755 754 753 752 750 749 747 747 746 746
794 793 793 793 793 792 792 792 792 791 791 791 790 789 788 788 787 786 786 785 784 783 782 781 779 778 777 775 774 773 772 772 771 771 770 770 769 769 768 768 767 766 765 763 762 762 761 760 760 760 760 760 760 760 760 759 759 758 757 756 755 754 753 751 750 748 747 747 747
795 794 794 794 794 794 794 793 793 793 792 792 791 790 789 789 788 787 786 785 784 783 782 781 780 778 777 776 775 775 774 773 773 772 772 771 770 770 769 768 767 767 766 765 764 763 762 762 761 761 761 761 761 761 761 761 760 759 758 757 756 755 754 752 751 750 748 748 748
796 796 796 796 795 795 795 795 794 794 793 792 792 791 790 789 788 787 787 786 785 783 782 781 780 779 778 777 777 776 776 775 774 773 773 772 771 770 769 769 768 767 767 766 765 764 763 763 762 762 762 762 762 762 762 762 761 760 759 758 757 756 755 753 752 751 749 748 748
797 797 797 797 796 796 796 796 795 795 794 793 792 792 791 790 789 788 787 786 785 784 783 782 781 780 779 779 778 777 777 776 775 774 773 772 771 770 770 769 769 768 767 766 766 765 764 764 764 763 763 763 763 763 762 762 761 760 759 758 757 756 755 754 753 752 751 750 749
798 798 797 797 797 797 797 796 796 795 794 794 793 792 791 790 789 788 787 786 785 784 783 783 782 782 781 780 779 778 778 777 776 775 774 773 772 771 770 770 769 768 767 767 766 766 766 765 764 764 763 763 763 763 763 762 761 760 759 758 757 756 755 754 754 753 752 751 750
799 798 798 798 797 797 797 796 796 795 794 793 793 792 791 790 789 788 787 787 786 785 784 784 783 782 782 781 780 779 778 777 776 775 774 773 772 771 771 770 770 769 769 769 768 768 767 767 766 765 764 764 764 763 763 762 762 761 760 759 758 757 756 755 754 753 752 751 751
800 799 799 798 798 797 797 796 795 795 794 793 792 792 791 790 789 788 788 787 787 786 786 785 784 783 782 782 781 780 779 778 777 776 775 774 773 772 772 771 771 771 771 771 770 770 769 768 767 766 766 765 764 764 764 763 762 762 761 759 758 757 756 755 754 753 752 752 751
800 800 799 798 798 797 797 796 795 795 794 793 793 792 791 791 790 790 789 788 788 787 787 786 785 784 783 782 782 781 780 779 778 777 777 776 775 774 773 772 772 772 772 772 772 771 770 769 768 768 767 766 765 765 764 764 763 762 761 760 759 758 757 756 754 753 752 752 751
801 800 800 799 798 798 797 797 796 795 795 794 793 793 792 792 791 791 790 789 789 788 787 787 786 785 784 783 782 782 781 780 779 779 778 777 777 776 774 774 774 774 774 773 773 772 771 770 770 769 768 767 766 766 765 765 764 763 762 761 759 758 757 757 755 754 753 752 751
802 801 800 800 799 798 798 797 797 796 795 795 794 794 793 792 792 791 790 790 789 788 787 787 786 786 785 784 783 783 782 781 781 780 779 779 778 777 776 776 775 775 775 774 774 773 772 772 771 770 769 768 767 767 766 765 764 763 762 761 760 759 758 757 756 755 754 752 752
802 802 801 800 800 799 798 798 797 797 796 796 795 794 793 793 792 791 790 790 789 788 787 787 787 786 785 785 784 783 783 782 782 781 780 780 779 778 777 777 776 776 776 775 774 774 773 772 772 771 770 769 768 767 767 766 765 764 763 762 761 760 759 758 757 756 754 753 752
803 802 802 801 800 800 799 798 798 797 797 796 795 794 793 792 792 791 790 790 789 789 788 787 787 786 786 785 785 784 783 783 782 782 781 781 780 779 778 777 777 777 777 776 775 774 774 773 772 772 771 770 769 768 767 766 766 764 763 762 762 761 760 758 757 756 755 754 753
804 803 802 802 801 801 800 799 799 798 797 797 796 795 794 793 792 791 791 790 790 789 789 788 787 787 786 786 785 785 784 783 783 782 782 781 781 780 779 778 777 777 777 776 775 775 774 773 773 772 771 770 769 768 767 767 766 765 764 763 762 761 760 759 758 757 756 754 753
804 804 803 802 802 801 801 800 799 799 798 797 796 795 794 793 793 792 792 791 791 790 789 788 788 787 787 786 786 785 785 784 783 783 782 782 781 781 780 779 778 778 777 777 776 775 774 773 773 772 772 771 769 768 767 767 766 765 764 763 762 762 761 760 758 757 756 755 754
805 804 804 803 802 802 801 801 800 799 798 797 797 796 795 794 794 793 792 792 791 791 790 789 788 788 787 787 786 786 785 785 784 784 783 783 782 782 781 780 778 778 778 777 776 776 775 774 773 772 772 771 770 769 768 767 766 765 764 763 763 762 761 760 759 758 757 756 755
805 805 804 804 803 802 802 801 801 800 799 798 797 797 796 795 794 794 793 792 792 792 791 790 789 789 788 788 787 787 786 786 785 785 784 784 783 782 781 780 779 779 778 778 777 776 775 774 773 772 772 771 770 769 768 767 766 765 764 763 763 762 761 760 759 758 757 756 755
806 805 805 804 804 803 802 802 801 800 799 798 798 797 797 796 795 795 794 793 793 792 792 791 790 790 789 788 788 787 787 786 786 785 785 784 784 783 782 781 780 779 779 778 777 777 776 774 773 772 772 771 770 769 768 767 766 765 764 764 763 762 761 760 759 758 757 757 755
807 806 805 805 804 804 803 802 801 801 800 799 798 798 797 797 796 795 795 794 793 793 792 791 791 790 790 789 788 788 787 787 787 786 786 785 785 784 783 782 781 780 779 779 778 777 776 775 774 772 772 771 770 769 767 767 766 765 764 764 763 762 761 760 759 758 757 757 756
807 807 806 805 805 804 803 802 802 801 800 799 799 798 798 797 797 796 796 795 794 793 793 792 792 791 790 790 789 789 788 788 787 787 786 786 785 784 783 782 781 780 779 779 778 777 776 775 774 772 771 770 769 768 767 767 766 765 764 763 763 762 761 760 759 758 757 757 756
807 807 807 806 805 805 804 803 802 801 801 800 800 799 798 798 797 797 796 796 795 794 794 793 792 792 791 791 790 790 789 788 788 787 787 786 785 785 784 782 781 780 779 779 778 777 776 775 773 772 771 770 769 768 767 766 765 765 764 763 762 762 761 760 759 758 757 757 756
808 807 807 807 806 805 804 803 803 802 802 801 801 800 799 799 798 798 797 797 796 796 795 794 794 793 792 792 791 790 790 789 788 787 787 786 785 784 783 782 781 780 779 778 777 777 775 774 773 772 771 769 768 767 767 766 765 764 763 762 761 761 760 759 758 757 757 756 755
809 808 807 807 807 806 805 804 804 803 803 802 802 801 800 800 799 799 798 798 797 796 796 795 794 793 793 792 791 791 790 789 788 787 787 786 785 784 783 782 781 780 779 778 777 777 775 774 773 772 771 770 768 767 767 766 765 764 762 762 761 759 758 758 757 757 756 755 754
809 809 808 808 807 807 806 805 805 804 803 803 802 802 801 801 800 799 799 798 797 797 796 795 794 794 793 792 791 790 790 789 788 787 787 786 785 784 783 782 781 780 779 778 777 777 776 775 774 772 772 770 769 768 767 766 765 763 762 762 760 759 758 757 756 755 755 754 753